Weather History for Hurlburt Field, FL

Change the Weather History Date:

Saturday, April 20, 2013

  Actual Average Record
Temperature  
Mean Temperature 56 °F -  
Max Temperature 68 °F 74 °F 82 °F (2002)
Min Temperature 44 °F 57 °F 44 °F (2001)
Degree Days  
Heating Degree Days 10    
Growing Degree Days 6 (Base 50)    
Moisture  
Dew Point 46 °F    
Average Humidity 68    
Maximum Humidity 100    
Minimum Humidity 43    
Precipitation  
Precipitation 0.00 in - - ()
Sea Level Pressure  
Sea Level Pressure 30.17 in    
Wind  
Wind Speed 10 mph (NNE)    
Max Wind Speed 20 mph    
Max Gust Speed 25 mph    
Visibility 10 miles    
Events      
Averages and records for this station are not official NWS values.
T = Trace of Precipitation, MM = Missing Value Source: NWS Daily Summary

Daily Weather History Graph

Daily Weather History Graph

Search for Another Location

Airport:

Trip Planner

Search our weather history database for the weather conditions in past years. The results will help you decide how hot, cold, wet, or windy it might be!

Date:

Astronomy

Apr. 20, 2013 Rise Set
Actual Time 6:13 AM CDT 7:17 PM CDT
Civil Twilight 5:48 AM CDT 7:42 PM CDT
Nautical Twilight 5:19 AM CDT 8:12 PM CDT
Astronomical Twilight 4:49 AM CDT 8:42 PM CDT
Moon 2:22 PM CDT 2:40 AM CDT
Length of Visible Light 13h 53m
Length of Day
13h 04m
Waxing Gibbous, 71% of the Moon is Illuminated
Apr 20
Waxing Gibbous
Apr 25
Full
May 2
Last Quarter
May 9
New
May 17
First Quarter

Hourly Weather History & Observations

Time (CDT) Temp. Windchill Dew Point Humidity Pressure Visibility Wind Dir Wind Speed Gust Speed Precip Events Conditions
12:58 AM 50.9 °F - 50.9 °F 100% 30.15 in 10.0 mi NNW 5.8 mph - N/A   Overcast
1:58 AM 50.4 °F - 50.4 °F 100% 30.15 in 10.0 mi NNW 5.8 mph - N/A   Overcast
2:58 AM 49.3 °F - 49.3 °F 100% 30.14 in 10.0 mi NNW 9.2 mph - N/A   Mostly Cloudy
3:58 AM 47.7 °F - 47.7 °F 100% 30.13 in 10.0 mi North 12.7 mph - N/A   Mostly Cloudy
4:58 AM 46.4 °F 41.9 °F 46.2 °F 99% 30.17 in 10.0 mi North 9.2 mph - N/A   Clear
5:58 AM 44.8 °F 41.0 °F 44.8 °F 100% 30.18 in 10.0 mi North 6.9 mph - N/A   Clear
6:58 AM 45.5 °F 40.8 °F 44.6 °F 97% 30.20 in 10.0 mi NNE 9.2 mph - N/A   Clear
7:58 AM 49.8 °F - 44.8 °F 83% 30.22 in 10.0 mi NNE 10.4 mph - N/A   Clear
8:58 AM 53.6 °F - 44.1 °F 70% 30.22 in 10.0 mi NE 12.7 mph 18.4 mph N/A   Clear
9:58 AM 57.4 °F - 41.7 °F 56% 30.23 in 10.0 mi NE 19.6 mph 25.3 mph N/A   Clear
10:58 AM 60.3 °F - 42.4 °F 52% 30.23 in 10.0 mi NE 16.1 mph - N/A   Clear
11:56 AM 62.6 °F - 44.6 °F 52% 30.20 in 10.0 mi North 12.7 mph 24.2 mph N/A   Clear
11:59 AM 62.1 °F - 43.5 °F 51% 30.21 in 10.0 mi North 13.8 mph 24.2 mph N/A   Clear
12:17 PM 62.6 °F - 42.8 °F 48% 30.19 in 10.0 mi NNE 15.0 mph - N/A   Partly Cloudy
12:58 PM 64.8 °F - 43.5 °F 46% 30.19 in 10.0 mi NE 11.5 mph 17.3 mph N/A   Partly Cloudy
1:47 PM 66.2 °F - 42.8 °F 43% 30.16 in 10.0 mi North 12.7 mph 21.9 mph N/A   Clear
1:58 PM 66.0 °F - 44.1 °F 45% 30.17 in 10.0 mi NNE 11.5 mph 20.7 mph N/A   Partly Cloudy
2:16 PM 66.2 °F - 44.6 °F 46% 30.15 in 10.0 mi NE 12.7 mph 20.7 mph N/A   Clear
2:58 PM 67.3 °F - 46.0 °F 46% 30.14 in 10.0 mi North 16.1 mph - N/A   Clear
3:58 PM 67.8 °F - 46.0 °F 46% 30.13 in 10.0 mi NE 11.5 mph - N/A   Clear
4:58 PM 67.6 °F - 46.6 °F 47% 30.12 in 10.0 mi NNE 13.8 mph 20.7 mph N/A   Clear
5:58 PM 66.2 °F - 46.6 °F 49% 30.13 in 10.0 mi NNE 11.5 mph 17.3 mph N/A   Clear
6:58 PM 63.7 °F - 46.4 °F 53% 30.14 in 10.0 mi NE 5.8 mph - N/A   Clear
7:58 PM 58.8 °F - 47.1 °F 65% 30.17 in 10.0 mi NE 5.8 mph - N/A   Clear
8:58 PM 57.9 °F - 46.2 °F 65% 30.18 in 10.0 mi ENE 5.8 mph - N/A   Clear
9:58 PM 52.0 °F - 47.3 °F 84% 30.20 in 10.0 mi NNE 5.8 mph - N/A   Clear
10:58 PM 51.6 °F - 47.3 °F 85% 30.20 in 10.0 mi NE 3.5 mph - N/A   Clear
11:58 PM 49.6 °F - 46.0 °F 87% 30.20 in 10.0 mi North 5.8 mph - N/A   Clear